Total_Precipitation_Accumulation
0.06 0.12 0.33 0.43 0.47 0.51 0.54 0.57 0.58 0.56 0.55 0.59 0.64 0.70 0.72 0.76 0.77 0.71 0.72 0.72 0.76 0.86 0.94 1.03 1.07 1.09 1.00 0.85 0.77 0.68 0.59 0.52 0.50 0.49 0.52 0.61 0.66 0.60 0.51 0.44 0.36 0.46 0.68
0.08 0.13 0.30 0.38 0.44 0.48 0.52 0.55 0.57 0.56 0.55 0.59 0.61 0.68 0.72 0.74 0.79 0.80 0.81 0.79 0.81 0.89 0.94 1.04 1.05 1.03 0.98 0.83 0.74 0.62 0.53 0.47 0.39 0.35 0.34 0.40 0.57 0.61 0.54 0.49 0.47 0.66 0.76
0.07 0.13 0.26 0.37 0.44 0.48 0.52 0.52 0.52 0.54 0.56 0.61 0.64 0.68 0.72 0.74 0.79 0.88 0.90 0.89 0.89 0.94 0.97 1.01 0.98 0.95 0.92 0.85 0.79 0.70 0.55 0.50 0.39 0.29 0.24 0.26 0.43 0.63 0.62 0.57 0.57 0.76 0.80
0.05 0.11 0.22 0.36 0.45 0.51 0.53 0.54 0.53 0.55 0.58 0.63 0.67 0.70 0.74 0.77 0.80 0.87 0.90 0.91 0.90 0.91 1.00 1.00 0.98 0.98 0.96 0.93 0.82 0.68 0.55 0.48 0.36 0.25 0.16 0.20 0.45 0.72 0.70 0.63 0.61 0.73 0.79
0.06 0.11 0.22 0.38 0.49 0.58 0.60 0.58 0.58 0.61 0.65 0.69 0.72 0.77 0.81 0.84 0.85 0.89 0.87 0.86 0.84 0.81 0.85 0.87 0.91 0.98 0.99 0.94 0.86 0.73 0.60 0.48 0.33 0.20 0.15 0.25 0.49 0.76 0.70 0.67 0.67 0.72 0.75
0.10 0.15 0.26 0.42 0.55 0.64 0.67 0.64 0.64 0.68 0.73 0.78 0.83 0.86 0.90 0.97 0.96 0.94 0.90 0.89 0.82 0.78 0.81 0.84 0.89 0.97 0.96 0.89 0.85 0.84 0.80 0.61 0.35 0.18 0.17 0.24 0.38 0.64 0.74 0.83 0.85 0.78 0.75
0.16 0.24 0.34 0.50 0.65 0.73 0.77 0.75 0.73 0.78 0.81 0.85 0.88 0.93 0.98 1.02 1.02 0.97 0.93 0.90 0.88 0.86 0.85 0.86 0.91 0.99 0.94 0.87 0.84 0.84 0.86 0.64 0.37 0.27 0.21 0.21 0.34 0.60 0.89 1.02 1.06 0.93 0.83
0.19 0.30 0.44 0.67 0.76 0.81 0.88 0.89 0.85 0.89 0.93 0.95 0.98 1.04 1.08 1.08 1.07 1.07 0.98 0.91 0.92 0.93 0.89 0.90 0.94 0.98 0.92 0.86 0.80 0.79 0.74 0.53 0.42 0.41 0.34 0.33 0.45 0.74 0.97 1.17 1.14 0.99 0.91
0.30 0.42 0.53 0.71 0.84 0.94 1.04 1.07 1.03 1.04 1.07 1.05 1.08 1.13 1.18 1.17 1.14 1.11 1.06 0.97 0.96 0.96 1.01 0.97 0.93 0.90 0.87 0.83 0.80 0.78 0.66 0.48 0.41 0.53 0.48 0.58 0.57 0.81 0.96 1.10 1.19 1.11 1.00
0.43 0.52 0.64 0.75 0.88 0.99 1.12 1.21 1.25 1.25 1.25 1.27 1.26 1.18 1.19 1.29 1.31 1.26 1.15 1.08 1.04 1.02 1.04 1.06 0.99 0.89 0.84 0.82 0.79 0.74 0.63 0.50 0.37 0.46 0.69 0.65 0.60 0.93 1.08 1.11 1.17 1.15 1.10
0.59 0.66 0.80 0.88 0.96 1.04 1.14 1.24 1.44 1.55 1.55 1.50 1.47 1.35 1.36 1.38 1.35 1.30 1.19 1.13 1.06 1.06 1.04 1.10 1.13 1.03 0.92 0.85 0.83 0.75 0.62 0.51 0.42 0.47 0.54 0.54 0.67 0.95 1.23 1.27 1.26 1.20 1.11
0.59 0.72 0.86 1.03 1.09 1.21 1.26 1.34 1.50 1.62 1.67 1.59 1.36 1.37 1.47 1.36 1.32 1.26 1.26 1.27 1.17 1.14 1.11 1.10 1.14 1.11 1.02 0.86 0.81 0.74 0.56 0.47 0.47 0.41 0.38 0.41 0.60 0.92 1.18 1.34 1.42 1.38 1.24
0.62 0.75 0.91 1.12 1.28 1.38 1.38 1.36 1.43 1.53 1.62 1.62 1.42 1.26 1.33 1.39 1.41 1.42 1.31 1.35 1.34 1.27 1.28 1.22 1.19 1.07 0.96 0.90 0.85 0.73 0.54 0.47 0.44 0.39 0.38 0.42 0.50 0.75 1.04 1.28 1.44 1.51 1.46
0.69 0.82 0.98 1.15 1.34 1.48 1.53 1.49 1.47 1.49 1.53 1.55 1.52 1.44 1.37 1.38 1.32 1.25 1.22 1.15 1.16 1.13 1.15 1.17 1.07 0.99 0.92 0.86 0.83 0.77 0.67 0.55 0.44 0.43 0.38 0.40 0.45 0.56 0.79 1.03 1.22 1.44 1.57
0.70 0.85 1.09 1.25 1.38 1.56 1.68 1.66 1.65 1.61 1.46 1.53 1.61 1.66 1.55 1.40 1.31 1.25 1.19 1.16 1.09 1.06 1.05 1.04 0.97 0.90 0.86 0.81 0.79 0.77 0.70 0.58 0.49 0.46 0.41 0.42 0.42 0.47 0.65 0.86 1.07 1.35 1.64
0.70 0.87 1.15 1.36 1.43 1.61 1.69 1.67 1.69 1.75 1.62 1.64 1.68 1.64 1.71 1.64 1.44 1.39 1.35 1.23 1.15 1.08 1.03 1.02 0.98 0.93 0.87 0.81 0.75 0.67 0.67 0.65 0.58 0.54 0.49 0.47 0.45 0.43 0.54 0.74 0.96 1.20 1.56
0.74 0.91 1.17 1.39 1.54 1.64 1.64 1.69 1.74 1.79 1.81 1.74 1.72 1.70 1.74 1.73 1.67 1.54 1.51 1.42 1.27 1.19 1.16 1.12 1.10 1.04 1.00 0.90 0.81 0.73 0.66 0.65 0.61 0.60 0.57 0.53 0.52 0.47 0.49 0.63 0.80 1.03 1.30
0.87 0.93 1.11 1.38 1.54 1.66 1.68 1.68 1.71 1.82 1.87 1.88 1.89 1.84 1.78 1.82 1.82 1.80 1.68 1.58 1.40 1.37 1.33 1.29 1.21 1.17 1.07 0.99 0.92 0.82 0.72 0.68 0.65 0.62 0.59 0.57 0.58 0.56 0.53 0.57 0.64 0.81 1.07
0.91 1.00 1.15 1.34 1.48 1.61 1.78 1.83 1.76 1.80 1.90 1.98 1.98 1.98 1.84 1.84 1.91 1.97 1.97 1.83 1.68 1.59 1.48 1.38 1.27 1.20 1.15 1.08 1.03 0.96 0.85 0.76 0.72 0.73 0.66 0.56 0.53 0.56 0.58 0.59 0.62 0.68 0.86
0.95 1.05 1.17 1.32 1.49 1.63 1.88 2.03 2.06 1.94 1.95 1.97 1.94 1.86 1.86 1.86 1.87 1.89 1.97 2.03 1.98 1.89 1.76 1.59 1.47 1.30 1.19 1.15 1.16 1.16 1.02 0.88 0.82 0.80 0.78 0.68 0.56 0.52 0.57 0.60 0.63 0.64 0.73
0.99 1.03 1.16 1.22 1.42 1.60 1.78 1.95 1.99 1.97 1.94 1.94 1.87 1.78 1.71 1.75 1.78 1.82 1.78 1.88 1.93 1.90 1.81 1.72 1.63 1.57 1.43 1.31 1.37 1.44 1.35 1.10 0.92 0.84 0.81 0.78 0.69 0.58 0.54 0.57 0.63 0.66 0.68
1.04 1.03 1.13 1.25 1.36 1.43 1.56 1.72 1.83 1.90 1.96 1.97 1.89 1.91 1.77 1.69 1.67 1.76 1.80 1.76 1.75 1.76 1.75 1.68 1.63 1.60 1.55 1.43 1.42 1.52 1.55 1.48 1.16 0.86 0.78 0.77 0.76 0.73 0.65 0.59 0.60 0.67 0.72
1.05 1.09 1.10 1.22 1.36 1.42 1.56 1.76 1.90 2.08 2.13 2.20 2.03 1.88 1.81 1.73 1.62 1.61 1.73 1.77 1.72 1.68 1.66 1.62 1.54 1.48 1.47 1.38 1.24 1.40 1.50 1.33 1.10 0.91 0.79 0.71 0.69 0.75 0.73 0.67 0.64 0.62 0.69
0.99 1.11 1.15 1.27 1.39 1.44 1.61 1.79 1.80 1.95 1.99 1.95 1.84 1.77 1.70 1.69 1.65 1.56 1.56 1.63 1.69 1.63 1.55 1.54 1.55 1.49 1.49 1.47 1.30 1.14 1.14 1.08 1.09 0.96 0.84 0.79 0.74 0.71 0.74 0.72 0.69 0.63 0.62
0.92 1.06 1.16 1.30 1.44 1.51 1.57 1.74 1.80 1.75 1.79 1.87 1.91 1.85 1.76 1.70 1.64 1.57 1.53 1.54 1.56 1.55 1.47 1.44 1.49 1.52 1.53 1.50 1.40 1.19 1.05 0.92 0.88 0.98 0.85 0.77 0.85 0.82 0.77 0.77 0.75 0.73 0.67
0.91 1.04 1.16 1.28 1.39 1.51 1.55 1.65 1.82 1.78 1.72 1.78 1.91 1.96 1.88 1.79 1.70 1.57 1.46 1.46 1.44 1.41 1.39 1.36 1.37 1.37 1.41 1.44 1.38 1.27 1.19 1.13 0.96 0.95 0.90 0.73 0.74 0.79 0.82 0.85 0.89 0.86 0.80